This demonstration page uses our WeatherBlox Daily Observations layout. Learn more.

Left ArrowRight Arrow

Hourly Observations for April 1, 2020

Temp ( °F °C ) Dew Point ( °F °C ) Humidity (%) Winds ( mph kmh ) Pressure ( in mb ) Visibility ( mi km ) Precip ( " mm )
12:54 am 00:54 Mostly Cloudy 57 13.9 42 5.6 58 58 SSW 13 20 29.85 1011 10 16.0934 0 0
1:54 am 01:54 Clear 55 12.8 42 5.6 62 62 S 10 17 29.85 1011 10 16.0934 0 0
2:54 am 02:54 Clear 53 11.7 42 5.6 66 66 SSW 10 17 29.85 1011 10 16.0934 0 0
3:54 am 03:54 Clear 49 9.4 42 5.6 77 77 S 9 15 29.85 1011 10 16.0934 0 0
4:54 am 04:54 Clear 44 6.7 39 3.9 83 83 S 9 15 29.85 1011 10 16.0934 0 0
5:54 am 05:54 Clear 44 6.7 40 4.4 85 85 SSE 9 15 29.86 1011 10 16.0934 0 0
6:54 am 06:54 Clear 41 5 38 3.3 89 89 S 8 13 29.86 1011 8 12.87472 0 0
7:54 am 07:54 Sunny 45 7.2 42 5.6 90 90 SSE 6 9 29.88 1012 8 12.87472 0 0
8:54 am 08:54 Sunny 51 10.6 44 6.7 77 77 SSE 13 20 29.88 1012 10 16.0934 0 0
9:54 am 09:54 Sunny 56 13.3 45 7.2 67 67 S 13 20 29.87 1011 10 16.0934 0 0
10:54 am 10:54 Sunny 63 17.2 46 7.8 54 54 S 17 28 29.85 1011 10 16.0934 0 0
11:54 am 11:54 Sunny 66 18.9 45 7.2 47 47 S 15 24 29.83 1010 10 16.0934 0 0
12:54 pm 12:54 Sunny 71 21.7 44 6.7 38 38 S 22 35 29.79 1009 10 16.0934 0 0
1:54 pm 13:54 Sunny 73 22.8 41 5 32 32 S 22 35 29.76 1008 10 16.0934 0 0
2:54 pm 14:54 Sunny 75 23.9 42 5.6 31 31 S 21 33 29.73 1007 10 16.0934 0 0
3:54 pm 15:54 Sunny 77 25 41 5 28 28 S 25 41 29.71 1006 10 16.0934 0 0
4:54 pm 16:54 Sunny 77 25 39 3.9 26 26 SSE 25 41 29.69 1006 10 16.0934 0 0
5:54 pm 17:54 Sunny 75 23.9 38 3.3 26 26 S 23 37 29.68 1005 10 16.0934 0 0
6:54 pm 18:54 Sunny 71 21.7 37 2.8 29 29 SSE 20 31 29.71 1006 10 16.0934 0 0
7:54 pm 19:54 Clear 68 20 39 3.9 35 35 SSE 17 28 29.73 1007 10 16.0934 0 0
8:54 pm 20:54 Clear 66 18.9 38 3.3 36 36 SSE 20 31 29.75 1008 10 16.0934 0 0
9:54 pm 21:54 Clear 64 17.8 37 2.8 37 37 SSE 23 37 29.78 1008 10 16.0934 0 0
10:54 pm 22:54 Clear 61 16.1 40 4.4 46 46 SSE 17 28 29.78 1008 10 16.0934 0 0
11:54 pm 23:54 Mostly Clear 60 15.6 41 5 50 50 SSE 20 31 29.77 1008 10 16.0934 0 0

Powered by AerisWeather